Location: Rounton
(54.4000°N, 1.3500°W)
Time: 18:54:56
(UTC+01:00)

S-56A Canister/Altair - Pass Details

Date: 13 September 2024
Orbit: 636 x 2487 km, 38.9° (Epoch: 06 October)

Event Time Altitude Azimuth Distance (km) Brightness Sun altitude
Rises 02:13:40 0° 266° (W) 4,720 - -30.0°
Reaches altitude 10° 02:17:57 10° 248° (WSW) 4,067 - -29.8°
Maximum altitude 02:24:25 18° 212° (SSW) 3,904 - -29.4°
Drops below altitude 10° 02:31:59 10° 177° (S) 4,873 - -29.0°
Sets 02:38:00 0° 162° (SSE) 6,068 - -28.6°
